IBE65I LEPA-LEVC

Flight info

Callsign IBE65I
Flight time N/A
Altitude 23000
Route EPAMA4R/06R EPAMA N733 ARGOR
Aircraft MD88/M-SDFGIRWY/S

Departure

Time N/A
Airport Palma de Mallorca Airport (LEPA)

Arrival

Time 2026-04-28 10:59
Airport Valencia Airport (LEVC)
Time Latitude Longitude Altitude Speed Heading
2026-04-28 10:37 39.64773 1.91991 22984 ft 396 kts 264°
2026-04-28 10:37 39.64482 1.88418 22988 ft 399 kts 264°
2026-04-28 10:37 39.64190 1.84803 22996 ft 401 kts 264°
2026-04-28 10:37 39.63902 1.81247 22997 ft 402 kts 264°
2026-04-28 10:38 39.63610 1.77632 22998 ft 402 kts 264°
2026-04-28 10:38 39.63318 1.74021 22991 ft 401 kts 264°
2026-04-28 10:38 39.63025 1.70418 22997 ft 400 kts 264°
2026-04-28 10:38 39.62732 1.66813 22998 ft 400 kts 264°
2026-04-28 10:39 39.62444 1.63273 23000 ft 400 kts 264°
2026-04-28 10:39 39.62151 1.59674 22998 ft 400 kts 264°
2026-04-28 10:39 39.61838 1.56070 23001 ft 401 kts 263°
2026-04-28 10:39 39.61522 1.52507 22999 ft 401 kts 263°
2026-04-28 10:40 39.61207 1.48904 22999 ft 401 kts 263°
2026-04-28 10:40 39.60903 1.45305 23002 ft 401 kts 264°
2026-04-28 10:40 39.60607 1.41701 23000 ft 401 kts 264°
2026-04-28 10:40 39.60321 1.38142 22997 ft 401 kts 264°
2026-04-28 10:41 39.60063 1.34521 22686 ft 403 kts 265°
2026-04-28 10:41 39.59848 1.30908 22314 ft 396 kts 265°
2026-04-28 10:41 39.59659 1.27419 22053 ft 390 kts 265°
2026-04-28 10:41 39.59474 1.23911 21793 ft 388 kts 265°
2026-04-28 10:42 39.59289 1.20419 21537 ft 387 kts 265°
2026-04-28 10:42 39.59099 1.16928 21280 ft 387 kts 265°
2026-04-28 10:42 39.58909 1.13501 21029 ft 386 kts 265°
2026-04-28 10:42 39.58713 1.10024 20785 ft 385 kts 265°
2026-04-28 10:43 39.58514 1.06552 20531 ft 384 kts 265°
2026-04-28 10:43 39.58316 1.03104 20285 ft 383 kts 265°
2026-04-28 10:43 39.58120 0.99697 20046 ft 382 kts 265°
2026-04-28 10:43 39.57922 0.96265 19802 ft 381 kts 265°
2026-04-28 10:44 39.57724 0.92825 19562 ft 380 kts 265°
2026-04-28 10:44 39.57527 0.89398 19328 ft 379 kts 265°
2026-04-28 10:44 39.57331 0.85980 19158 ft 378 kts 265°
2026-04-28 10:44 39.57138 0.82618 18932 ft 378 kts 264°
2026-04-28 10:45 39.56929 0.79213 18698 ft 377 kts 264°
2026-04-28 10:45 39.56713 0.75801 18294 ft 380 kts 264°
2026-04-28 10:45 39.56500 0.72397 17688 ft 377 kts 264°
2026-04-28 10:45 39.56294 0.69034 17086 ft 371 kts 264°
2026-04-28 10:46 39.56099 0.65767 16542 ft 365 kts 264°
2026-04-28 10:46 39.55908 0.62508 16036 ft 357 kts 265°
2026-04-28 10:46 39.55717 0.59322 15539 ft 349 kts 264°
2026-04-28 10:46 39.55522 0.56228 15118 ft 340 kts 264°
2026-04-28 10:47 39.55327 0.53193 14817 ft 334 kts 264°
2026-04-28 10:47 39.55136 0.50237 14534 ft 335 kts 264°
2026-04-28 10:47 39.54943 0.47231 14184 ft 334 kts 264°
2026-04-28 10:47 39.54752 0.44232 13832 ft 334 kts 264°
2026-04-28 10:48 39.54562 0.41224 13436 ft 333 kts 264°
2026-04-28 10:48 39.54377 0.38278 13052 ft 332 kts 264°
2026-04-28 10:48 39.54190 0.35293 12669 ft 331 kts 264°
2026-04-28 10:48 39.54005 0.32322 12287 ft 330 kts 264°
2026-04-28 10:49 39.53742 0.29376 11909 ft 328 kts 255°
2026-04-28 10:49 39.53060 0.26565 11538 ft 326 kts 248°
2026-04-28 10:49 39.52250 0.23838 11167 ft 320 kts 247°
2026-04-28 10:49 39.51452 0.21222 10794 ft 312 kts 247°
2026-04-28 10:50 39.50660 0.18635 10439 ft 304 kts 247°
2026-04-28 10:50 39.50145 0.16949 10196 ft 300 kts 247°
2026-04-28 10:50 39.49139 0.13628 9724 ft 297 kts 247°
2026-04-28 10:50 39.48397 0.11139 9324 ft 295 kts 248°
2026-04-28 10:51 39.47670 0.08666 8940 ft 292 kts 248°
2026-04-28 10:51 39.46955 0.06207 8555 ft 290 kts 248°
2026-04-28 10:51 39.46255 0.03784 8181 ft 289 kts 248°
2026-04-28 10:51 39.45553 0.01348 7811 ft 287 kts 248°
2026-04-28 10:52 39.44861 -0.01059 7437 ft 283 kts 248°
2026-04-28 10:52 39.44186 -0.03406 7051 ft 279 kts 248°
2026-04-28 10:52 39.43640 -0.05799 6666 ft 276 kts 257°
2026-04-28 10:52 39.43320 -0.08242 6273 ft 273 kts 260°
2026-04-28 10:53 39.43047 -0.10672 5860 ft 271 kts 261°
2026-04-28 10:53 39.42787 -0.13052 5466 ft 269 kts 261°
2026-04-28 10:53 39.42533 -0.15417 5073 ft 267 kts 261°
2026-04-28 10:53 39.42278 -0.17831 4670 ft 266 kts 261°
2026-04-28 10:54 39.42030 -0.20169 4268 ft 264 kts 261°
2026-04-28 10:54 39.41775 -0.22530 3860 ft 263 kts 261°
2026-04-28 10:54 39.41519 -0.24848 3467 ft 263 kts 261°
2026-04-28 10:54 39.41268 -0.27188 3069 ft 262 kts 266°
2026-04-28 10:55 39.41617 -0.29431 2814 ft 247 kts 300°
2026-04-28 10:55 39.42477 -0.31286 2670 ft 238 kts 302°
2026-04-28 10:55 39.43237 -0.33165 2703 ft 233 kts 296°
2026-04-28 10:55 39.43939 -0.35001 2329 ft 219 kts 298°
2026-04-28 10:56 39.44386 -0.36130 2070 ft 207 kts 299°
2026-04-28 10:56 39.45138 -0.38176 1831 ft 172 kts 295°
2026-04-28 10:56 39.45633 -0.39505 1526 ft 160 kts 298°
2026-04-28 10:56 39.46118 -0.40776 1223 ft 158 kts 298°
2026-04-28 10:57 39.46613 -0.42040 1031 ft 157 kts 298°
2026-04-28 10:57 39.46925 -0.42867 899 ft 151 kts 296°
2026-04-28 10:57 39.47528 -0.44460 621 ft 145 kts 297°
2026-04-28 10:57 39.47969 -0.45636 447 ft 147 kts 296°
2026-04-28 10:58 39.48427 -0.46848 275 ft 149 kts 297°
2026-04-28 10:58 39.48732 -0.47639 219 ft 144 kts 297°
2026-04-28 10:58 39.49127 -0.48676 220 ft 110 kts 296°
2026-04-28 10:58 39.49510 -0.49683 216 ft 88 kts 295°
2026-04-28 10:59 39.49634 -0.50009 218 ft 27 kts 305°
2026-04-28 10:59 39.49763 -0.50091 215 ft 15 kts
2026-04-28 10:59 39.49830 -0.50035 212 ft 10 kts 71°
2026-04-28 10:59 39.49804 -0.49920 213 ft 12 kts 117°
2026-04-28 11:00 39.49775 -0.49851 219 ft 14 kts 117°
2026-04-28 11:00 39.49727 -0.49727 211 ft 17 kts 116°
2026-04-28 11:00 39.49673 -0.49580 218 ft 19 kts 116°
2026-04-28 11:00 39.49611 -0.49418 213 ft 21 kts 116°
2026-04-28 11:01 39.49542 -0.49239 218 ft 23 kts 116°
2026-04-28 11:01 39.49470 -0.49048 212 ft 24 kts 116°
2026-04-28 11:01 39.49393 -0.48844 219 ft 26 kts 116°
2026-04-28 11:01 39.49311 -0.48631 216 ft 27 kts 116°
2026-04-28 11:02 39.49228 -0.48413 217 ft 27 kts 116°
2026-04-28 11:02 39.49143 -0.48189 219 ft 28 kts 116°
2026-04-28 11:02 39.49059 -0.47967 216 ft 26 kts 116°
2026-04-28 11:02 39.49031 -0.47829 213 ft 13 kts 78°
2026-04-28 11:03 39.49050 -0.47723 218 ft 12 kts 76°
2026-04-28 11:03 39.49061 -0.47630 217 ft 9 kts 79°
2026-04-28 11:03 39.49093 -0.47577 216 ft 7 kts 45°
2026-04-28 11:03 39.49115 -0.47549 210 ft 0 kts 44°
2026-04-28 11:04 39.49115 -0.47548 210 ft 0 kts 44°